[[{"header":{"parameterUnit":"m.s-1","parameterCategory":1,"la1":30.2991,"la2":30.254,"lo1":-89.0895,"lo2":-89.0444,"dy":0.0017,"dx":0.0017,"nx":28,"ny":28,"refTime":"2024-12-16T09:00:00:Z","depth":0,"parameterNumber":2,"parameterNumberName":"U-component_of_WINDS"},"data":[0,0,0,0,0,0,0,0,0,0,0,0,0,0,0,0,0,0,0,0,0,0,0,0,0,0,0,0,0,0,0,0,0,0,0,0,0,0,0,0,0,0,0,0,0,0,0,0,0,0,0,0,0,0,0,0,0,0,-0.7236,-0.7236,0,-0.718,-0.718,-0.7179,-0.7119,-0.7119,-0.7118,-0.7117,-0.7062,-0.7061,-0.7061,0,0,0,0,0,0,0,0,0,0,0,0,0,-0.7293,-0.7292,-0.7236,-0.7236,-0.7235,-0.718,-0.718,-0.7179,-0.712,-0.7119,-0.7117,-0.7117,-0.7062,-0.7061,-0.7061,0,0,0,0,0,0,0,0,0,0,0,0,0,-0.7256,-0.7292,-0.7236,-0.7199,-0.7195,-0.7181,-0.718,-0.7179,-0.712,-0.7118,-0.7117,-0.7116,-0.7063,-0.7062,-0.7061,-0.708,0,0,-0.7058,-0.7057,0,0,0,0,0,0,0,0,-0.7258,-0.7254,-0.7205,-0.7201,-0.7197,-0.7155,-0.7179,-0.7146,-0.712,-0.7148,-0.7117,-0.7115,-0.7094,-0.7091,-0.7083,-0.7077,-0.7075,-0.7057,-0.7057,-0.7056,-0.7056,0,0,0,0,0,0,0,-0.7261,-0.7256,-0.7214,-0.7204,-0.7199,-0.7185,-0.7178,-0.7173,-0.7129,-0.7146,-0.7141,-0.7135,-0.7092,-0.7084,-0.7081,-0.7074,-0.7057,-0.7057,-0.7056,-0.7056,-0.7082,-0.7083,0,0,0,0,0,0,-0.7269,-0.7259,-0.7216,-0.7212,-0.7225,-0.7185,-0.7177,-0.717,-0.7129,-0.7122,-0.7136,-0.7133,-0.7086,-0.7083,-0.7079,-0.71,-0.7056,-0.7055,-0.7055,-0.7081,-0.7083,-0.7084,0,0,0,0,0,0,-0.727,-0.7266,-0.7218,-0.7234,-0.7227,-0.7185,-0.7177,-0.717,-0.7162,-0.7122,-0.7114,-0.7137,-0.7085,-0.7081,-0.708,-0.7097,-0.7055,-0.7054,-0.7079,-0.7081,-0.7083,-0.7141,0,0,0,0,0,0,-0.7272,-0.7266,-0.7273,-0.7235,-0.7226,-0.722,-0.7178,-0.7169,-0.716,-0.7155,-0.712,-0.7113,-0.7084,-0.7082,-0.7079,-0.7095,-0.7053,-0.7078,-0.708,-0.7083,-0.7138,-0.7145,-0.7151,0,0,0,0,0,-0.7274,-0.7292,-0.7274,-0.7269,-0.7234,-0.7221,-0.7216,-0.7182,-0.7162,-0.7168,-0.7143,-0.7114,-0.7095,-0.7082,-0.7079,-0.7095,-0.7077,-0.708,-0.7082,-0.7135,-0.7144,-0.7151,0,0,0,0,0,0,-0.7334,-0.7286,-0.7266,-0.7271,-0.7251,-0.7211,-0.7218,-0.7192,-0.7177,-0.7173,-0.7131,-0.7124,-0.7129,-0.7111,-0.7098,-0.7111,-0.7082,-0.7084,-0.7123,-0.7131,-0.7138,-0.7143,-0.7052,0,0,0,0,0,-0.7348,-0.7341,-0.7299,-0.7309,-0.7299,-0.7261,-0.7254,-0.7229,-0.7206,-0.7197,-0.7171,-0.7151,-0.714,-0.7134,-0.7122,-0.7134,-0.7127,-0.7143,-0.715,-0.7156,-0.7159,-0.7165,-0.7172,-0.7094,-0.7094,-0.7094,0,0,-0.7377,-0.7349,-0.7348,-0.732,-0.7301,-0.7295,-0.7254,-0.7249,-0.7245,-0.7197,-0.7195,-0.7175,-0.715,-0.7156,-0.7157,-0.7141,-0.7179,-0.716,-0.7165,-0.7164,-0.7169,-0.7176,-0.7183,-0.7096,-0.7095,-0.7095,0,0,-0.7426,-0.7404,-0.741,-0.7392,-0.7363,-0.7337,-0.7338,-0.7302,-0.7288,-0.7285,-0.7248,-0.7243,-0.7225,-0.7209,-0.7198,-0.724,-0.7214,-0.7238,-0.7274,-0.728,-0.7286,-0.7291,-0.7308,-0.7314,-0.724,-0.7241,-0.7241,0,-0.7466,-0.7455,-0.7416,-0.7414,-0.7403,-0.7358,-0.7364,-0.7348,-0.7318,-0.7311,-0.7294,-0.7271,-0.725,-0.7252,-0.7263,-0.7255,-0.7256,-0.7242,-0.7288,-0.7293,-0.7298,-0.7313,-0.7319,-0.7244,-0.7243,-0.7243,-0.7243,0,-0.7506,-0.7499,-0.7507,-0.7478,-0.7468,-0.747,-0.7432,-0.7426,-0.7402,-0.7378,-0.7376,-0.7349,-0.7332,-0.733,-0.7306,-0.7329,-0.732,-0.7296,-0.7266,-0.7309,-0.7323,-0.7328,-0.7248,-0.7247,-0.7246,-0.7245,0,0,-0.7593,-0.7542,-0.7546,-0.7532,-0.7497,-0.7491,-0.7491,-0.7473,-0.7469,-0.7449,-0.7449,-0.7435,-0.7412,-0.74,-0.7374,-0.7379,-0.7416,-0.7354,-0.7353,-0.7368,-0.744,-0.746,-0.7468,-0.7398,-0.7399,-0.7399,-0.7443,0,-0.7638,-0.7634,-0.7599,-0.7606,-0.76,-0.7556,-0.7556,-0.7535,-0.7513,-0.7505,-0.748,-0.7471,-0.7441,-0.7434,-0.7436,-0.7411,-0.743,-0.7407,-0.7398,-0.7399,-0.7408,-0.7474,-0.7495,-0.7538,-0.7448,-0.7449,-0.745,0,-0.769,-0.7673,-0.7679,-0.7644,-0.764,-0.764,-0.7621,-0.7613,-0.7588,-0.7572,-0.7558,-0.7528,-0.7526,-0.7496,-0.7494,-0.7479,-0.7473,-0.746,-0.7461,-0.746,-0.7428,-0.7477,-0.755,-0.7558,-0.7457,-0.7457,-0.7456,0,-0.7755,-0.7733,-0.7734,-0.7724,-0.7682,-0.7684,-0.7667,-0.764,-0.7632,-0.7614,-0.7609,-0.7592,-0.7583,-0.7571,-0.7538,-0.7519,-0.754,-0.7507,-0.7527,-0.7528,-0.7535,-0.7535,-0.761,-0.7528,-0.7528,-0.7528,-0.7528,0,-0.7809,-0.7816,-0.7763,-0.7764,-0.7769,-0.7728,-0.7735,-0.7714,-0.7691,-0.7687,-0.7648,-0.7646,-0.7601,-0.7594,-0.7568,-0.757,-0.7566,-0.7554,-0.7547,-0.7558,-0.756,-0.7555,-0.7552,-0.753,-0.7529,-0.7529,-0.7529,0,-0.7884,-0.7848,-0.7847,-0.7807,-0.7798,-0.7804,-0.777,-0.777,-0.7744,-0.774,-0.7737,-0.7698,-0.7687,-0.7652,-0.7633,-0.7615,-0.7627,-0.7613,-0.7635,-0.7631,-0.7654,-0.7653,-0.7729,-0.7738,-0.765,-0.765,-0.7651,0,-0.7922,-0.7926,-0.7886,-0.7881,-0.7865,-0.7857,-0.7847,-0.7807,-0.7799,-0.7771,-0.7774,-0.776,-0.7747,-0.7733,-0.7703,-0.7688,-0.7675,-0.7702,-0.7672,-0.7684,-0.7677,-0.7678,-0.7679,-0.771,-0.7711,-0.7712,-0.7713,0,-0.7994,-0.7976,-0.7964,-0.7946,-0.7936,-0.792,-0.7901,-0.7899,-0.7854,-0.7847,-0.7836,-0.7826,-0.7806,-0.7793,-0.7773,-0.7756,-0.7728,-0.7722,-0.7726,-0.7739,-0.7752,-0.7747,-0.7655,-0.7721,-0.772,-0.7719,-0.7719,-0.7719,-0.8052,-0.8054,-0.8026,-0.8014,-0.7996,-0.798,-0.7977,-0.7951,-0.7941,-0.7921,-0.7898,-0.7889,-0.7864,-0.7835,-0.782,-0.7813,-0.7797,-0.7803,-0.7804,-0.7807,-0.7813,-0.7752,-0.7809,-0.7809,-0.7808,-0.7808,-0.7808,0,-0.8124,-0.8103,-0.8093,-0.8068,-0.8059,-0.8031,-0.8009,-0.8003,-0.7996,-0.7974,-0.7962,-0.7949,-0.7936,-0.7905,-0.7889,-0.789,-0.7877,-0.7888,-0.7888,-0.7885,-0.7827,-0.7826,-0.7899,-0.7899,-0.7899,-0.7899,-0.7899,-0.7899,-0.816,-0.8161,-0.814,-0.8132,-0.8111,-0.8102,-0.8092,-0.8077,-0.806,-0.8047,-0.8036,-0.8015,-0.799,-0.7972,-0.796,-0.7951,-0.7948,-0.7963,-0.7951,-0.7898,-0.7889,-0.7881,-0.7879,-0.7962,-0.7963,-0.8009,-0.8009,-0.801]},{"header":{"parameterUnit":"m.s-1","parameterCategory":1,"la1":30.2991,"la2":30.254,"lo1":-89.0895,"lo2":-89.0444,"dy":0.0017,"dx":0.0017,"nx":28,"ny":28,"refTime":"2024-12-16T09:00:00:Z","depth":0,"parameterNumber":3,"parameterNumberName":"V-component_of_WINDS"},"data":[0,0,0,0,0,0,0,0,0,0,0,0,0,0,0,0,0,0,0,0,0,0,0,0,0,0,0,0,0,0,0,0,0,0,0,0,0,0,0,0,0,0,0,0,0,0,0,0,0,0,0,0,0,0,0,0,0,0,-1.3952,-1.3952,0,-1.3997,-1.3998,-1.3998,-1.3985,-1.3984,-1.3983,-1.3982,-1.4029,-1.4031,-1.4033,0,0,0,0,0,0,0,0,0,0,0,0,0,-1.3852,-1.3854,-1.3952,-1.3952,-1.3953,-1.3997,-1.3998,-1.3999,-1.3985,-1.3984,-1.3983,-1.3982,-1.4028,-1.4031,-1.4033,0,0,0,0,0,0,0,0,0,0,0,0,0,-1.3896,-1.3855,-1.3951,-1.3951,-1.3952,-1.3997,-1.3998,-1.3999,-1.3985,-1.3984,-1.3982,-1.3981,-1.4027,-1.403,-1.4033,-1.4082,0,0,-1.4043,-1.4045,0,0,0,0,0,0,0,0,-1.3894,-1.39,-1.3951,-1.3951,-1.3952,-1.3984,-1.398,-1.4027,-1.3986,-1.3973,-1.3982,-1.398,-1.4015,-1.4019,-1.4031,-1.4084,-1.4086,-1.4044,-1.4045,-1.4047,-1.4048,0,0,0,0,0,0,0,-1.3891,-1.3898,-1.397,-1.3952,-1.3952,-1.3949,-1.3954,-1.3989,-1.4001,-1.3974,-1.3973,-1.3978,-1.4015,-1.4028,-1.4032,-1.4087,-1.4043,-1.4046,-1.4048,-1.4049,-1.4182,-1.4183,0,0,0,0,0,0,-1.3887,-1.3895,-1.3968,-1.3971,-1.3919,-1.3952,-1.3957,-1.3975,-1.4001,-1.4003,-1.398,-1.3978,-1.4023,-1.4028,-1.4033,-1.4092,-1.4047,-1.405,-1.4052,-1.418,-1.4182,-1.4184,0,0,0,0,0,0,-1.3885,-1.3894,-1.3966,-1.3933,-1.3942,-1.3955,-1.3975,-1.3977,-1.399,-1.4005,-1.4007,-1.399,-1.4022,-1.4029,-1.407,-1.4093,-1.4051,-1.4054,-1.4178,-1.4181,-1.4183,-1.4209,0,0,0,0,0,0,-1.3882,-1.3893,-1.3912,-1.3934,-1.3944,-1.4002,-1.3977,-1.3979,-1.3995,-1.3993,-1.4016,-1.4018,-1.4022,-1.4065,-1.4073,-1.4097,-1.4057,-1.4176,-1.4179,-1.4182,-1.4206,-1.4212,-1.4217,0,0,0,0,0,-1.3879,-1.3917,-1.3913,-1.3922,-1.3967,-1.4004,-1.4009,-1.4012,-1.3997,-1.4016,-1.4026,-1.4018,-1.4089,-1.4069,-1.4078,-1.4103,-1.4175,-1.4178,-1.4182,-1.4204,-1.4211,-1.4217,0,0,0,0,0,0,-1.3898,-1.392,-1.3915,-1.3962,-1.3981,-1.4001,-1.4025,-1.402,-1.4044,-1.4041,-1.4043,-1.4048,-1.4091,-1.4101,-1.4078,-1.4151,-1.413,-1.4135,-1.4143,-1.415,-1.4155,-1.4152,-1.4059,0,0,0,0,0,-1.3907,-1.3935,-1.3953,-1.3992,-1.4002,-1.4012,-1.4028,-1.4028,-1.4048,-1.4056,-1.4069,-1.4089,-1.4116,-1.4133,-1.4159,-1.4207,-1.4212,-1.4229,-1.4234,-1.4239,-1.4244,-1.427,-1.4278,-1.4196,-1.4196,-1.4195,0,0,-1.3927,-1.3943,-1.396,-1.3996,-1.4011,-1.404,-1.4019,-1.405,-1.4071,-1.4061,-1.4101,-1.4111,-1.4133,-1.4178,-1.4198,-1.4188,-1.4267,-1.4243,-1.4247,-1.4249,-1.4275,-1.4282,-1.4289,-1.4198,-1.4198,-1.4197,0,0,-1.3978,-1.3993,-1.4027,-1.4043,-1.4065,-1.4072,-1.408,-1.4101,-1.4108,-1.4148,-1.4141,-1.4166,-1.4212,-1.4228,-1.4242,-1.43,-1.4293,-1.4308,-1.4336,-1.4362,-1.4369,-1.4375,-1.4396,-1.4403,-1.4313,-1.4313,-1.4313,0,-1.4,-1.4043,-1.4045,-1.4077,-1.4094,-1.4086,-1.4121,-1.4135,-1.4165,-1.4177,-1.4165,-1.4223,-1.4237,-1.4286,-1.43,-1.4311,-1.4321,-1.4305,-1.4368,-1.4374,-1.4379,-1.4399,-1.4407,-1.4314,-1.4314,-1.4314,-1.4314,0,-1.4069,-1.4099,-1.4124,-1.4154,-1.4173,-1.4206,-1.4213,-1.4232,-1.4231,-1.4239,-1.4279,-1.4296,-1.4325,-1.4337,-1.4336,-1.4385,-1.4378,-1.4367,-1.4345,-1.4389,-1.4407,-1.4415,-1.4317,-1.4316,-1.4316,-1.4315,0,0,-1.4133,-1.4164,-1.4173,-1.4187,-1.4211,-1.4234,-1.4267,-1.4296,-1.4312,-1.4333,-1.4361,-1.44,-1.439,-1.4406,-1.4407,-1.443,-1.4475,-1.4416,-1.4416,-1.4426,-1.4531,-1.4539,-1.4548,-1.447,-1.4472,-1.4473,-1.4529,0,-1.4187,-1.4245,-1.4248,-1.4301,-1.4329,-1.4322,-1.4351,-1.4369,-1.4377,-1.4401,-1.441,-1.4438,-1.4422,-1.4432,-1.4454,-1.4464,-1.4496,-1.446,-1.4496,-1.4497,-1.4492,-1.4558,-1.4567,-1.462,-1.4536,-1.4537,-1.4538,0,-1.4257,-1.4281,-1.4336,-1.4357,-1.4369,-1.4395,-1.4422,-1.4445,-1.4466,-1.447,-1.4488,-1.4486,-1.452,-1.4496,-1.4543,-1.4519,-1.4534,-1.4541,-1.4543,-1.4547,-1.4521,-1.4564,-1.4636,-1.4644,-1.455,-1.4549,-1.4548,0,-1.4299,-1.4344,-1.4384,-1.4395,-1.4421,-1.4439,-1.4451,-1.447,-1.4487,-1.451,-1.4521,-1.4548,-1.4562,-1.4583,-1.4588,-1.4571,-1.4635,-1.4612,-1.4639,-1.4639,-1.4654,-1.4653,-1.473,-1.4662,-1.4662,-1.4662,-1.4662,0,-1.4359,-1.4393,-1.4403,-1.4427,-1.4466,-1.4469,-1.4507,-1.4517,-1.4534,-1.456,-1.4555,-1.458,-1.4585,-1.461,-1.4614,-1.4653,-1.4659,-1.4664,-1.4664,-1.4664,-1.4664,-1.4674,-1.4671,-1.4664,-1.4664,-1.4663,-1.4663,0,-1.4412,-1.442,-1.4463,-1.4483,-1.4489,-1.4517,-1.4534,-1.4558,-1.4565,-1.4598,-1.4606,-1.4618,-1.4648,-1.4654,-1.469,-1.4692,-1.4738,-1.4735,-1.4731,-1.4731,-1.4759,-1.4756,-1.4845,-1.4857,-1.4782,-1.4782,-1.4783,0,-1.445,-1.4476,-1.45,-1.4517,-1.453,-1.4557,-1.4575,-1.4579,-1.4597,-1.4623,-1.4643,-1.4673,-1.4696,-1.4744,-1.4756,-1.4783,-1.4781,-1.481,-1.4785,-1.4784,-1.4782,-1.4781,-1.4783,-1.4815,-1.4816,-1.4817,-1.4817,0,-1.4516,-1.4519,-1.4544,-1.4572,-1.4593,-1.4614,-1.4635,-1.4649,-1.4656,-1.4677,-1.4707,-1.4726,-1.4762,-1.4792,-1.4819,-1.483,-1.4825,-1.4825,-1.4833,-1.4834,-1.4831,-1.4833,-1.4745,-1.4823,-1.4823,-1.4822,-1.4822,-1.4822,-1.4563,-1.4587,-1.4607,-1.4636,-1.4652,-1.4671,-1.4694,-1.4705,-1.473,-1.476,-1.4761,-1.4795,-1.4815,-1.4851,-1.4864,-1.489,-1.4881,-1.4892,-1.4895,-1.4898,-1.4901,-1.4826,-1.4895,-1.4895,-1.4895,-1.4895,-1.4894,0,-1.463,-1.4643,-1.4669,-1.4698,-1.4721,-1.4714,-1.4736,-1.4756,-1.4785,-1.4805,-1.4828,-1.4863,-1.4892,-1.4906,-1.4934,-1.4952,-1.4951,-1.496,-1.4959,-1.4961,-1.4907,-1.4898,-1.496,-1.496,-1.496,-1.496,-1.496,-1.496,-1.4667,-1.4706,-1.4712,-1.4759,-1.4771,-1.4804,-1.4818,-1.4836,-1.4851,-1.4891,-1.4915,-1.4924,-1.4941,-1.497,-1.4996,-1.4999,-1.501,-1.502,-1.5023,-1.4972,-1.4965,-1.4959,-1.495,-1.5023,-1.5023,-1.5075,-1.5075,-1.5075]}]]